Weather Roundup
Issued by NWS

Home | Current Version | Previous Version | Text Only | Print | Product List | Glossary On
Versions: 1 2 3 4 5 6 7 8 9 10 11 12 13 14 15 16 17 18 19 20 21 22 23 24 25 26 27 28 29 30 31 32 33 34 35 36 37 38 39 40 41 42 43 44 45 46 47 48 49 50
000
NZUS93 KARX 170410
HRRWXR

CURRENT HOURLY OBSERVATIONS ACROSS
MUCH OF THE UPPER MISSISSIPPI VALLEY
NATIONAL WEATHER SERVICE LA CROSSE WI
1100 PM CDT WED APR 16 2014


...SOUTHEAST MINNESOTA...


CITY           SKY/WX    TMP DP  RH WIND       PRES   REMARKS
ROCHESTER      CLOUDY    45  33  63 SE15      29.81F
ROCHESTER/MAYO CLOUDY    46  31  56 E9        29.83F
WINONA         CLOUDY    52  30  43 SE13G20   29.87F
AUSTIN         LGT RAIN  45  36  70 SE9       29.78S
ALBERT LEA     LGT RAIN  41  41 100 N10       29.80R
DODGE CENTER   LGT RAIN  46  37  71 SE6       29.82F
PRESTON        CLOUDY    48  31  51 SE16G24   29.82S
OWATONNA       RAIN      39  37  93 N15       29.84R WCI  31
FARIBAULT      RAIN      39  34  81 N14       29.87R WCI  31
$$

...ELSEWHERE IN MINNESOTA...


CITY           SKY/WX    TMP DP  RH WIND       PRES   REMARKS
MINNEAPOLIS    LGT SNOW  31  31 100 N15       29.94R FOG     WCI  20
INTNL FALLS    CLEAR     28   8  43 NE6       30.24R WCI  22
DULUTH         LGT SNOW  26  22  84 NE18G32   30.12F VSB 3/4 WCI  13
RED WING       LGT RAIN  45  39  81 SE7       29.89S
REDWOOD FALLS  CLOUDY    29  25  85 N18G28    30.05R WCI  16
MANKATO        CLOUDY    32  30  93 N22       29.91R WCI  19
WORTHINGTON    CLOUDY    28  21  74 N23G31    30.04R WCI  14
FAIRMONT       CLOUDY    30  27  86 NW29G36   29.94R WCI  15
$$

...SOUTHWEST WISCONSIN...


CITY           SKY/WX    TMP DP  RH WIND       PRES   REMARKS
LA CROSSE      CLOUDY    51  28  41 SE16G26   29.90F
PRAIRIE DU CHI CLOUDY    51  27  39 SE13G22   29.92F
BOSCOBEL       CLOUDY    50  28  42 S8G22     29.96S
LONE ROCK      CLOUDY    48  29  47 SE14G31   30.00F
PLATTEVILLE    CLOUDY    47  29  50 SE18G25   29.99S
FORT MC COY    CLOUDY    49  27  43 SE16      29.95S
CAMP DOUGLAS   CLOUDY    46  31  55 SE17G25   29.98F
VIROQUA        CLOUDY    46  29  52 SE21G28   29.92F
WIS DELLS      CLOUDY    46  27  47 SE17      30.02F
$$

...ELSEWHERE IN WISCONSIN...


CITY           SKY/WX    TMP DP  RH WIND       PRES   REMARKS
MILWAUKEE      CLOUDY    43  27  53 SE15      30.17R
MADISON        MOCLDY    46  28  49 SE16      30.07R
GREEN BAY      CLOUDY    37  27  67 E9        30.18F WCI  30
EAU CLAIRE     LGT RAIN  39  34  82 E13       29.95F WCI  31
BLACK RVR FLS  CLOUDY    48  28  46 SE10      29.94S
MEDFORD        CLOUDY    36  26  67 SE15G21   30.02F WCI  26
WAUSAU         CLOUDY    37  24  59 E20G26    30.06S WCI  27
WIS RAPIDS     LGT RAIN  40  26  57 SE15G23   30.06S WCI  32
MARSHFIELD     CLOUDY    38  28  67 E16       30.02F WCI  29
RICE LAKE      CLOUDY    35  32  89 E12G18    29.99F FOG     WCI  27
$$

...NORTHEAST IOWA...


CITY           SKY/WX    TMP DP  RH WIND       PRES   REMARKS
WATERLOO       PTCLDY    49  30  48 S21G32    29.83R
DUBUQUE        CLOUDY    46  29  51 SE25G31   29.96S
DECORAH        CLOUDY    48  30  49 S21G32    29.84F
MASON CITY     CLOUDY    42  41  96 W15       29.81R
CHARLES CITY   CLOUDY    50  32  50 S17G23    29.81R
OELWEIN        PTCLDY   N/A N/A N/A SE22G32   29.86S
$$

...ELSEWHERE IN IOWA...


CITY           SKY/WX    TMP DP  RH WIND       PRES   REMARKS
DES MOINES     CLOUDY    45  37  73 W18G28    29.93R
IOWA CITY      MOCLDY    48  30  49 SE17G26   29.96S
FORT DODGE     CLOUDY    37  30  75 NW16G23   29.94R WCI  28
MARSHALLTOWN   LGT RAIN  48  39  71 W23       29.85R
CEDAR RAPIDS   CLEAR     48  28  46 S18G29    29.90S
$$

...NORTHERN ILLINOIS...


CITY           SKY/WX    TMP DP  RH WIND       PRES   REMARKS
CHICAGO-OHARE  MOCLDY    45  23  42 S14       30.16R
DUPAGE         PTCLDY    44  25  47 S13       30.15R
CHICAGO-MIDWAY PTCLDY    46  24  42 SE14G24   30.17R
MOLINE         MOCLDY    48  27  44 SE18G25   30.01F
ROCKFORD       CLOUDY    43  30  60 SE12      30.12S
STERLING       CLOUDY    46  28  49 SE10G20   30.07S
PEORIA         CLOUDY    48  28  46 S14G23    30.10F
$$

NOTE: "FAIR" INDICATES FEW OR NO CLOUDS BELOW 12,000 FEET WITH NO
SIGNIFICANT WEATHER AND/OR OBSTRUCTIONS TO VISIBILITY. WIND
SPEEDS ARE IN MILES-PER-HOUR.



USA.gov is the U.S. government's official web portal to all federal, state and local government web resources and services.